COSMOS 2533

Last updated on Sat Apr 13 2024 01:02:39 GMT+0100 (British Summer Time)

1 43867U 18107A 24103.53473413 -.00000047 00000+0 00000+0 0 9995 2 43867 0.0369 88.6628 0000274 40.8604 334.1804 1.00270985 19455
UTC large
Height (km)
Speed (km/s)
/
Latitude / Longitude
Inclination (degrees)
Orbital Period (minutes)
Azimuth
Elevation
Range (km)
Doppler Factor

Next 0 passes for location: London (51.5072 / 0.1276)

Sorry there are no passes over London.